Regional Weather Roundup
Issued by NWS

Home | Current Version | Previous Version | Graphics & Text | Print | Product List | Glossary On
Versions: 1 2 3 4 5 6 7 8 9 10 11 12 13 14 15 16 17 18 19 20 21 22 23 24 25 26 27 28 29 30 31 32 33 34 35 36 37 38 39 40 41 42 43 44 45 46 47 48 49 50
000
ASUS45 KTFX 222010
RWRMT
MONTANA REGIONAL WEATHER ROUNDUP
NATIONAL WEATHER SERVICE GREAT FALLS MT
100 PM MST SUN JAN 22 2017

NOTE: "FAIR" INDICATES FEW OR NO CLOUDS BELOW 12000 FEET WITH NO
SIGNIFICANT WEATHER AND/OR OBSTRUCTIONS TO VISIBILITY.

MTZ001>007-043-222100-
WEST OF THE DIVIDE

CITY           SKY/WX    TMP DP  RH WIND       PRES   REMARKS
KALISPELL      CLOUDY    32  25  75 CALM      29.73F
MISSOULA       SUNNY     22  20  92 CALM      29.71F FOG
BUTTE          MOSUNNY   22  14  71 CALM      29.72F
MULLAN PASS    CLOUDY    26  22  84 SE8       29.58F WCI  18
ANACONDA         N/A     34  16  47 SE14G23   29.70F WCI  24
DEER LODGE       N/A     34  19  55 S13       29.72F WCI  25
EUREKA           N/A     30  27  86 CALM      29.76F
HAMILTON         N/A     25  19  80 NE5       29.68F
PLAINS           N/A     26  22  85 CALM      29.74F
RONAN            N/A     28  26  92 CALM      29.77F VSB 0
$$

MTZ008-052>055-222100-
SOUTHWEST MONTANA

CITY           SKY/WX    TMP DP  RH WIND       PRES   REMARKS
BOZEMAN        SUNNY     27  17  66 E7        29.78F WCI  19
DILLON         CLOUDY   N/A N/A N/A E3        29.73F
W YELLOWSTONE  CLOUDY    27  19  74 S3        29.79F
ENNIS          SUNNY     34  21  60 S23G30    29.78F WCI  22
TWIN BRIDGES     N/A     25  13  60 E3        29.77F
$$

MTZ009-010-012-014-046-048-049-054-222100-
EAST SLOPES AND CENTRAL MONTANA

CITY           SKY/WX    TMP DP  RH WIND       PRES   REMARKS
CUT BANK       CLOUDY    25  24  96 E6        29.77F FOG     WCI  18
GREAT FALLS    SUNNY     34  24  67 E7        29.76F WCI  28
MALMSTROM AFB  SUNNY     31  28  86 NE8       29.77F WCI  24
HELENA         SUNNY     20  13  74 CALM      29.78F
AUGUSTA          N/A     30  22  72 SE6       29.72F WCI  24
BOWMANS CRNR     N/A     32  21  63 S12       29.70F WCI  23
CHOTEAU          N/A     27  25  93 NE7       29.77F WCI  19
CONRAD           N/A     24  23  96 CALM      29.82F VSB 0
POWER            N/A     26  24  89 NE5       29.75F
RAYNESFORD       N/A     38  20  49 W3        29.74F
ULM              N/A     34  24  66 MISG      29.75F
$$

MTZ011-013-016-021-045-047-050-051-222100-
NORTH CENTRAL MONTANA

CITY           SKY/WX    TMP DP  RH WIND       PRES   REMARKS
HAVRE          CLOUDY    29  27  92 SW3       29.83F
LEWISTOWN      SUNNY     37  21  52 CALM      29.76F
CHINOOK          N/A     30  27  86 W7        29.84F WCI  23
DENTON         PTSUNNY   27  26  97 NE6       29.75F FOG     WCI  20
FORT BENTON      N/A     28  25  86 MISG      29.84F
GEYSER           N/A     31  25  77 E7        29.75F WCI  24
GRASS RANGE    PTSUNNY   34  26  71 E15       29.74F WCI  24
JUDITH GAP       N/A     37  19  48 W16       29.75F WCI  27
ROY              N/A     29  26  87 MISG      29.78F
STANFORD       PTSUNNY   34  22  61 NE8       29.74F WCI  28
WINIFRED       PTSUNNY   25  25 100 N3        29.78F FOG
$$

MTZ017>020-022>027-061-062-222100-
NORTHEAST MONTANA

CITY           SKY/WX    TMP DP  RH WIND       PRES   REMARKS
GLASGOW        CLOUDY    31  24  75 W16       29.83F WCI  20
JORDAN           N/A     31  26  82 NW10      29.83F WCI  22
SIDNEY         CLOUDY    31  26  82 W10       29.83S WCI  22
WOLF POINT     CLOUDY    32  26  78 W13       29.84S WCI  22
PLENTYWOOD       N/A    N/A N/A N/A W15       29.77F
POPLAR           N/A     30  27  86 W12       29.83F WCI  21
SCOBEY           N/A     28  19  69 W15       29.78F WCI  16
$$

MTZ028>42-056>058-222100-
SOUTHCENTRAL AND SOUTHEAST MONTANA

CITY           SKY/WX    TMP DP  RH WIND       PRES   REMARKS
BAKER          FOG       24  22  91 W13       29.83F VSB 1   WCI  12
BILLINGS       MOSUNNY   34  20  56 SW14      29.81F WCI  25
LIVINGSTON     SUNNY     43  16  33 SW24G30   29.74F
MILES CITY     CLOUDY    24  20  84 S6        29.86S FOG     WCI  17
BIG TIMBER     SUNNY     43  12  28 W10       29.78F
EKALAKA          N/A     27  18  69 W7        29.80F WCI  20
FORSYTH          N/A     21  18  86 CALM      29.85F
HARLOWTON        N/A     38  17  42 CALM      29.76F
LAUREL           N/A     32  18  56 SW1       29.80F
ROUNDUP          N/A     40  18  41 S7        29.72F
$$

REGIONAL REPORTS...DAKOTAS

CITY           SKY/WX    TMP DP  RH WIND       PRES   REMARKS
WILLISTON      CLOUDY    31  27  85 W13       29.80S WCI  21
MINOT          CLOUDY    34  30  85 W10       29.75S WCI  26
DICKINSON      CLOUDY    26  23  88 W22       29.78S WCI  12
BEACH          CLOUDY    27  27 100 W12       29.83F WCI  16
CROSBY         CLOUDY    30  30 100 W15       29.78S WCI  19
TIOGA          CLOUDY    28  28 100 W16G23    29.77S WCI  17
WATFORD CITY   CLOUDY    28  27  93 W12G17    29.80S WCI  18
BISMARCK       CLOUDY    33  29  85 NW10      29.80S WCI  25
GRAND FORKS    CLOUDY    34  29  82 W9        29.73S WCI  27
FARGO          CLOUDY    36  31  82 W7        29.74S HAZE    WCI  30
BUFFALO SD       N/A     32  24  72 W10       29.74F WCI  24
RAPID CITY     SUNNY     39  26  59 SE6       29.83F
$$

REGIONAL REPORTS...WYOMING/IDAHO/WASHINGTON

CITY           SKY/WX    TMP DP  RH WIND       PRES   REMARKS
GILLETTE       SUNNY     40  21  46 W6        29.83F
SHERIDAN       SUNNY     39  22  50 VRB6      29.82F
BUFFALO WY     SUNNY     34  20  56 S12       29.81F WCI  25
CODY           SUNNY     39  13  34 SW10      29.80F
YELLOWSTONE LA   N/A     23  17  78 VRB3      29.79F
IDAHO FALLS    PTSUNNY   27  22  81 CALM      29.81F
SALMON         CLOUDY    16  12  86 CALM      29.74F
BOISE          CLOUDY    40  26  57 SE24G33   29.63F
SPOKANE        CLOUDY    38  30  73 NE10      29.58F WCI  31
$$

REGIONAL REPORTS...ALBERTA

CITY           SKY/WX    TMP DP  RH WIND       PRES   REMARKS
EDMONTON       CLOUDY    16  10  79 NE3       29.92F
CALGARY        CLOUDY    23  19  86 E3        29.79F FOG
LETHBRIDGE     CLOUDY    27  25  93 E3        29.81F FOG
MEDICINE HAT   LGT SNOW  27  25  93 NW5       29.84F FOG
WATERTON GATE    N/A     27  23  86 NE3         N/A
CARDSTON         N/A     25  23  93 NE3         N/A
MILK RIVER       N/A     27  25  93 SE2         N/A
$$

REGIONAL REPORTS...SASKATCHEWAN

CITY           SKY/WX    TMP DP  RH WIND       PRES   REMARKS
SWIFT CURRENT  CLOUDY    23  21  93 NW14      29.76F WCI  11
REGINA         CLOUDY    28  23  80 NW18      29.73F WCI  16
SASKATOON      FLURRIES  21  16  79 N15       29.80F WCI   8
CYPRESS HILLS    N/A     25  21  86 NW3         N/A
VAL MARIE        N/A     28  25  86 W5          N/A
$$



USA.gov is the U.S. government's official web portal to all federal, state and local government web resources and services.